Starlink 5769

operational
NORAD ID: 55585 Int'l Des: 2023-020 Owner: SPXS Country: US Constellation: starlink
LEOCIRCULAR

Über Starlink 5769

Beschreibung wird geladen...

Live-Position

3D-Globus wird geladen...

Nächste Überflüge

Höhenverlauf

Altitude vs Time

uPlot chart will show altitude changes over time

Zweizeiliger Elementsatz

1 55585U 23020S 26035.44379301 -.00003099 00000-0 -21434-3 0 9992
2 55585 43.0008 172.7223 0001514 282.0954 77.9718 15.02548451164061
Epoch: 4. Feb. 2026 • Age: 16 hours

Aktueller Status

Höhe 563.2 km
Geschwindigkeit 7.59 km/s
Subsatellitenpunkt 42.81°N, 87.17°E
Startdatum 12. Feb. 2023
Alter 2.9 years
Typ internet

Technische Details

Klassifizierung Payload
Masse 305.00 kg
Trockenmasse 290.00 kg
Gesamtmasse 305.00 kg
Länge 0.20 m
Durchmesser 2.80 m
Spannweite 9.00 m
Form Box + pan
Hersteller SPXS
Bus-Typ Starlink
Phasenstatus In Orbit
Besitzer/Staat SPXS/US

Große Konstellationen

Loading constellations...